Location: Bruch
(44.2051°N, 0.4120°E)
Time: 09:22:15
(UTC+00:00)

Cosmos 1943 - Pass Details

Date: 29 November 2020
Orbit: 832 x 851 km, 71.0° (Epoch: 25 January)

Event Time Altitude Azimuth Distance (km) Brightness Sun altitude
Exits shadow 05:18:40 31° 250° (WSW) 1,442 3.9 -19.7°
Drops below altitude 10° 05:23:19 10° 195° (SSW) 2,469 5.6 -18.9°
Sets 05:26:00 0° 186° (S) 3,398 6.4 -18.4°
